Location: Prescott
(34.5400°N, 112.4680°W)
Time: 08:42:22
(UTC-07:00)

OTV 5 (USA 277) - Pass Details

Date: 21 February 2019
Orbit: 315 x 320 km, 54.5° (Epoch: 14 March)

Event Time Altitude Azimuth Distance (km) Brightness Sun altitude
Rises 19:54:22 0° 222° (SW) 2,045 ? -20.4°
Reaches altitude 10° 19:56:19 10° 222° (SW) 1,218 ? -20.8°
Enters shadow 19:57:39 26° 222° (SW) 674 ? -21.1°
